This is the latest recevied weather packets stored in our database for station/object KC5EZZ-2. If no packets are shown the sender has not sent any weather packets the latest 10 day(s).
| Time | Temp. | Humidity | Pressure | Rain* | Wind** | Luminosity | Snow |
|---|---|---|---|---|---|---|---|
| 1777512322 | 16.67° C | - | - | 0 mm | 4.92 m/s, 18° | - | - |
| 1777512023 | 17.22° C | - | - | 0 mm | 4.02 m/s, 3° | - | - |
| 1777511720 | 17.22° C | - | - | 0 mm | 3.58 m/s, 346° | - | - |
| 1777511421 | 17.22° C | - | - | 0 mm | 4.02 m/s, 7° | - | - |
| 1777511121 | 17.22° C | - | - | 0 mm | 4.02 m/s, 24° | - | - |
| 1777510819 | 17.22° C | - | - | 0 mm | 4.02 m/s, 63° | - | - |
| 1777510520 | 17.22° C | - | - | 0 mm | 4.92 m/s, 28° | - | - |
| 1777510220 | 17.22° C | - | - | 0 mm | 2.68 m/s, 10° | - | - |
| 1777509917 | 17.78° C | - | - | 0 mm | 3.13 m/s, 25° | - | - |
| 1777509617 | 17.78° C | - | - | 0 mm | 3.58 m/s, 35° | - | - |
| 1777509318 | 17.22° C | - | - | 0 mm | 4.47 m/s, 18° | - | - |
| 1777509015 | 17.78° C | - | - | 0 mm | 5.36 m/s, 10° | - | - |
| 1777508716 | 17.78° C | - | - | 0 mm | 4.47 m/s, 31° | - | - |
| 1777508416 | 17.22° C | - | - | 0 mm | 5.36 m/s, 21° | - | - |
| 1777508113 | 17.78° C | - | - | 0 mm | 4.47 m/s, 352° | - | - |
| 1777507814 | 17.78° C | - | - | 0 mm | 4.92 m/s, 359° | - | - |
| 1777507514 | 17.78° C | - | - | 0 mm | 4.47 m/s, 24° | - | - |
| 1777507212 | 17.78° C | - | - | 0 mm | 4.02 m/s, 14° | - | - |
| 1777506912 | 17.78° C | - | - | 0 mm | 5.36 m/s, 357° | - | - |
| 1777506613 | 17.78° C | - | - | 0 mm | 3.58 m/s, 6° | - | - |
| 1777506310 | 17.78° C | - | - | 0 mm | 4.47 m/s, 17° | - | - |
| 1777506011 | 17.78° C | - | - | 0 mm | 4.02 m/s, 11° | - | - |
| 1777505711 | 18.33° C | - | - | 0 mm | 3.58 m/s, 336° | - | - |
| 1777505409 | 17.78° C | - | - | 0 mm | 4.92 m/s, 20° | - | - |
| 1777505110 | 17.78° C | - | - | 0 mm | 4.02 m/s, 336° | - | - |
* Rain latest hour (hover to see other rain measurements)
** Current wind speed in m/s (hover to see current wind gust speed)